This is the latest recevied weather packets stored in our database for station/object DL6JOE-10. If no packets are shown the sender has not sent any weather packets the latest 10 day(s).
| Time | Temp. | Humidity | Pressure | Rain* | Wind** | Luminosity | Snow |
|---|---|---|---|---|---|---|---|
| 1777815384 | 31.11° C | 22% | 959.3 hPa | - | - | - | - |
| 1777814484 | 31.67° C | 21% | 959.5 hPa | - | - | - | - |
| 1777813584 | 31.67° C | 21% | 959.6 hPa | - | - | - | - |
| 1777812684 | 31.67° C | 22% | 959.7 hPa | - | - | - | - |
| 1777811784 | 31.11° C | 23% | 959.8 hPa | - | - | - | - |
| 1777810883 | 31.67° C | 23% | 959.8 hPa | - | - | - | - |
| 1777809983 | 31.67° C | 23% | 960.1 hPa | - | - | - | - |
| 1777809083 | 31.11° C | 24% | 960.2 hPa | - | - | - | - |
| 1777808183 | 30.56° C | 24% | 960.3 hPa | - | - | - | - |
| 1777807283 | 30.56° C | 25% | 960.4 hPa | - | - | - | - |
| 1777806383 | 30.56° C | 24% | 960.5 hPa | - | - | - | - |
| 1777805483 | 28.33° C | 27% | 960.7 hPa | - | - | - | - |
| 1777804583 | 28.33° C | 27% | 960.9 hPa | - | - | - | - |
| 1777803683 | 27.22° C | 29% | 961.1 hPa | - | - | - | - |
| 1777802783 | 27.22° C | 29% | 961.2 hPa | - | - | - | - |
| 1777801882 | 26.11° C | 31% | 961.4 hPa | - | - | - | - |
| 1777800982 | 25.56° C | 31% | 961.6 hPa | - | - | - | - |
| 1777800082 | 25° C | 32% | 961.7 hPa | - | - | - | - |
| 1777799182 | 24.44° C | 32% | 961.9 hPa | - | - | - | - |
| 1777798282 | 23.33° C | 34% | 961.9 hPa | - | - | - | - |
| 1777797382 | 22.22° C | 35% | 962 hPa | - | - | - | - |
| 1777796482 | 21.11° C | 35% | 962.1 hPa | - | - | - | - |
| 1777795582 | 20.56° C | 36% | 962.2 hPa | - | - | - | - |
| 1777794682 | 20° C | 37% | 962.2 hPa | - | - | - | - |
| 1777793782 | 19.44° C | 38% | 962.2 hPa | - | - | - | - |
* Rain since midnight (hover to see other rain measurements)
** Current wind speed in m/s (hover to see current wind gust speed)